K1LBG Weather Reports


Display with metric or nautical units.
time (UTC)temp
F
wind
direction
speed
MPH
gust
MPH
rain 1hr
in
rain 24hr
in
rain mn
in
humidity
%
barometer
mb
20260505034624 52 196 4.0 10.0 0.00 0.00 0.00 79 1011.3
20260505034125 52 186 5.0 9.0 0.00 0.00 0.00 79 1011.2
20260505033632 52 197 4.0 8.0 0.00 0.00 0.00 78 1011.2
20260505033122 53 159 3.0 8.0 0.00 0.00 0.00 77 1011.1
20260505032627 53 219 3.0 10.0 0.00 0.00 0.00 77 1011.1
20260505032138 53 202 6.0 10.0 0.00 0.00 0.00 77 1011.1
20260505031621 53 196 6.0 12.0 0.00 0.00 0.00 75 1011.1
20260505031144 54 187 6.0 12.0 0.00 0.00 0.00 75 1011.2
20260505030630 54 200 4.0 16.0 0.00 0.00 0.00 75 1011.2
20260505030156 54 221 8.0 16.0 0.00 0.00 0.00 75 1011.2
20260505025644 54 199 5.0 11.0 0.00 0.00 0.00 74 1011.2
20260505025124 54 178 7.0 11.0 0.00 0.00 0.00 74 1011.2
20260505024636 54 209 5.0 9.0 0.00 0.00 0.00 74 1011.3
20260505024127 54 213 5.0 9.0 0.00 0.00 0.00 74 1011.3
20260505023633 54 206 4.0 11.0 0.00 0.00 0.00 73 1011.3
20260505023121 54 186 4.0 9.0 0.00 0.00 0.00 72 1011.3
20260505022628 55 236 3.0 9.0 0.00 0.00 0.00 71 1011.3
20260505022150 55 232 5.0 9.0 0.00 0.00 0.00 71 1011.3
20260505021623 55 246 4.0 10.0 0.00 0.00 0.00 70 1011.2
20260505021149 55 202 6.0 12.0 0.00 0.00 0.00 70 1011.2
20260505020638 55 200 6.0 12.0 0.00 0.00 0.00 70 1011.3
20260505020127 55 196 6.0 19.0 0.00 0.00 0.00 69 1011.3
20260505015651 55 217 6.0 18.0 0.00 0.00 0.00 69 1011.3
20260505015134 55 258 6.0 12.0 0.00 0.00 0.00 68 1011.3
20260505014641 56 220 6.0 12.0 0.00 0.00 0.00 68 1011.3
20260505014130 56 228 5.0 13.0 0.00 0.00 0.00 67 1011.3
20260505013636 56 242 4.0 13.0 0.00 0.00 0.00 67 1011.2
20260505013126 56 215 6.0 14.0 0.00 0.00 0.00 66 1011.2
20260505012629 56 194 8.0 14.0 0.00 0.00 0.00 65 1011.1
20260505012158 56 227 5.0 10.0 0.00 0.00 0.00 65 1011.0
20260505011646 57 232 3.0 15.0 0.00 0.00 0.00 64 1011.0
20260505011132 57 215 6.0 15.0 0.00 0.00 0.00 63 1010.9
20260505010643 57 218 5.0 10.0 0.00 0.00 0.00 62 1010.8
20260505010146 57 200 5.0 12.0 0.00 0.00 0.00 61 1010.7
20260505005659 57 245 8.0 13.0 0.00 0.00 0.00 61 1010.6
20260505005145 58 234 6.0 16.0 0.00 0.00 0.00 61 1010.5
20260505004651 58 232 5.0 16.0 0.00 0.00 0.00 60 1010.4
20260505004152 58 201 7.0 16.0 0.00 0.00 0.00 60 1010.2
20260505003642 59 252 8.0 15.0 0.00 0.00 0.00 59 1010.2
20260505003130 59 215 7.0 20.0 0.00 0.00 0.00 57 1010.1
20260505002640 59 213 11.0 21.0 0.00 0.00 0.00 57 1010.0
20260505002142 59 162 7.0 21.0 0.00 0.00 0.00 56 1009.8
20260505001629 60 192 9.0 18.0 0.00 0.00 0.00 55 1009.7
20260505001207 60 204 7.0 25.0 0.00 0.00 0.00 55 1009.5
20260505000640 60 216 10.0 16.0 0.00 0.00 0.00 55 1009.5
20260505000128 60 257 8.0 16.0 0.00 0.00 0.00 54 1009.5
20260504235654 61 217 9.0 16.0 0.00 0.00 0.00 53 1009.4
20260504235128 61 208 7.0 19.0 0.00 0.00 0.00 53 1009.2
20260504234634 61 215 5.0 19.0 0.00 0.00 0.00 52 1009.1
20260504234137 62 234 7.0 22.0 0.00 0.00 0.00 52 1009.1
20260504233627 62 232 7.0 22.0 0.00 0.00 0.00 51 1009.0
20260504233136 62 227 10.0 19.0 0.00 0.00 0.00 51 1008.9
20260504232625 62 211 9.0 20.0 0.00 0.00 0.00 51 1008.8
20260504232131 62 222 8.0 20.0 0.00 0.00 0.00 51 1008.8
20260504231637 63 279 10.0 20.0 0.00 0.00 0.00 50 1008.7
20260504231124 63 204 10.0 23.0 0.00 0.00 0.00 50 1008.7
20260504230628 63 217 10.0 23.0 0.00 0.00 0.00 51 1008.6
20260504230121 63 156 10.0 20.0 0.00 0.00 0.00 50 1008.5
20260504225630 63 227 10.0 15.0 0.00 0.00 0.00 50 1008.5
20260504225133 64 237 7.0 24.0 0.00 0.00 0.00 51 1008.4
20260504224640 64 234 10.0 24.0 0.00 0.00 0.00 50 1008.4
20260504224129 64 205 6.0 21.0 0.00 0.00 0.00 49 1008.2
20260504223653 65 221 9.0 23.0 0.00 0.00 0.00 49 1008.2
20260504223123 65 217 15.0 23.0 0.00 0.00 0.00 48 1008.1
20260504222630 65 195 11.0 25.0 0.00 0.00 0.00 48 1008.1
20260504222149 66 209 16.0 22.0 0.00 0.00 0.00 48 1008.1
20260504221636 66 236 10.0 24.0 0.00 0.00 0.00 48 1008.1
20260504221125 66 263 8.0 24.0 0.00 0.00 0.00 47 1008.0
20260504220649 66 202 8.0 21.0 0.00 0.00 0.00 47 1008.1
20260504220134 66 212 11.0 22.0 0.00 0.00 0.00 46 1008.1
20260504215653 66 242 15.0 25.0 0.00 0.00 0.00 46 1008.1
20260504215142 66 234 15.0 25.0 0.00 0.00 0.00 46 1008.0
20260504214628 67 202 13.0 26.0 0.00 0.00 0.00 45 1008.2
20260504214135 67 255 10.0 20.0 0.00 0.00 0.00 44 1008.1
20260504213625 67 188 9.0 20.0 0.00 0.00 0.00 44 1008.0
20260504213148 67 232 9.0 24.0 0.00 0.00 0.00 43 1008.0
20260504212622 68 242 15.0 27.0 0.00 0.00 0.00 43 1007.9
20260504212132 68 201 10.0 22.0 0.00 0.00 0.00 43 1007.8
20260504211655 68 202 9.0 22.0 0.00 0.00 0.00 42 1007.8
20260504211129 69 196 10.0 23.0 0.00 0.00 0.00 43 1007.8
20260504210637 69 211 14.0 23.0 0.00 0.00 0.00 42 1007.8
20260504210122 69 223 15.0 24.0 0.00 0.00 0.00 41 1007.7
20260504205626 70 245 7.0 23.0 0.00 0.00 0.00 41 1007.7
20260504205151 70 187 11.0 20.0 0.00 0.00 0.00 38 1007.6
20260504204637 70 221 5.0 13.0 0.00 0.00 0.00 39 1007.6
20260504204126 70 226 8.0 23.0 0.00 0.00 0.00 38 1007.6
20260504203705 71 236 9.0 23.0 0.00 0.00 0.00 36 1007.6
20260504203134 71 193 8.0 23.0 0.00 0.00 0.00 37 1007.6
20260504202626 71 244 12.0 23.0 0.00 0.00 0.00 36 1007.7
20260504202149 72 242 11.0 27.0 0.00 0.00 0.00 37 1007.6
20260504201637 72 247 7.0 20.0 0.00 0.00 0.00 37 1007.6
20260504201124 71 256 8.0 25.0 0.00 0.00 0.00 36 1007.7
20260504200627 71 240 12.0 26.0 0.00 0.00 0.00 36 1007.8
20260504200133 71 227 14.0 26.0 0.00 0.00 0.00 38 1007.7
20260504195626 72 236 11.0 27.0 0.00 0.00 0.00 37 1007.8
20260504195148 72 216 14.0 27.0 0.00 0.00 0.00 35 1007.7
20260504194631 72 248 6.0 21.0 0.00 0.00 0.00 36 1007.8
20260504194137 72 306 13.0 21.0 0.00 0.00 0.00 33 1007.8
20260504193644 72 288 9.0 20.0 0.00 0.00 0.00 37 1007.9
20260504193146 72 211 9.0 19.0 0.00 0.00 0.00 37 1007.8
20260504192626 72 247 10.0 19.0 0.00 0.00 0.00 35 1007.8
20260504192121 72 245 8.0 21.0 0.00 0.00 0.00 36 1007.8
20260504191626 72 244 8.0 21.0 0.00 0.00 0.00 34 1007.8
20260504191151 71 248 10.0 21.0 0.00 0.00 0.00 35 1007.8
20260504190644 71 237 13.0 21.0 0.00 0.00 0.00 34 1007.9
20260504190146 71 215 13.0 26.0 0.00 0.00 0.00 35 1007.8
20260504185637 71 263 13.0 26.0 0.00 0.00 0.00 34 1008.0
20260504185139 71 182 13.0 25.0 0.00 0.00 0.00 35 1008.1
20260504184644 71 226 14.0 24.0 0.00 0.00 0.00 34 1008.1
20260504184137 71 236 9.0 31.0 0.00 0.00 0.00 34 1008.1
20260504183625 71 217 14.0 31.0 0.00 0.00 0.00 35 1008.0
20260504183133 71 211 10.0 24.0 0.00 0.00 0.00 36 1008.1
20260504182632 71 265 10.0 29.0 0.00 0.00 0.00 37 1008.1
20260504182214 71 203 11.0 29.0 0.00 0.00 0.00 34 1008.2
20260504181701 71 229 12.0 24.0 0.00 0.00 0.00 35 1008.3
20260504181128 71 202 10.0 25.0 0.00 0.00 0.00 36 1008.2
20260504180632 71 196 7.0 27.0 0.00 0.00 0.00 36 1008.4
20260504180134 71 192 17.0 27.0 0.00 0.00 0.00 40 1008.4
20260504175700 70 221 11.0 28.0 0.00 0.00 0.00 35 1008.5
20260504175130 71 174 14.0 28.0 0.00 0.00 0.00 35 1008.6
20260504174639 71 229 12.0 27.0 0.00 0.00 0.00 33 1008.4
20260504174144 71 246 12.0 25.0 0.00 0.00 0.00 37 1008.5
20260504173631 71 284 10.0 25.0 0.00 0.00 0.00 37 1008.4
20260504173121 70 175 8.0 19.0 0.00 0.00 0.00 36 1008.5
20260504172648 70 244 8.0 26.0 0.00 0.00 0.00 40 1008.5
20260504172135 70 285 11.0 27.0 0.00 0.00 0.00 36 1008.4
20260504171624 70 243 11.0 29.0 0.00 0.00 0.00 37 1008.4
20260504171134 70 202 13.0 29.0 0.00 0.00 0.00 34 1008.4
20260504170635 69 289 11.0 29.0 0.00 0.00 0.00 41 1008.4
20260504170124 69 279 14.0 29.0 0.00 0.00 0.00 35 1008.6
20260504160124 68 240 12.0 27.0 0.00 0.00 0.00 37 1009.5
20260504151139 67 229 9.0 22.0 0.00 0.00 0.00 42 1009.9
20260504150706 66 261 9.0 24.0 0.00 0.00 0.00 42 1009.9
20260504150132 66 275 14.0 26.0 0.00 0.01 0.00 42 1009.9
20260504141145 65 219 10.0 22.0 0.00 0.01 0.00 43 1010.5
20260504140651 65 215 9.0 20.0 0.00 0.01 0.00 44 1010.6
20260504140121 64 236 9.0 17.0 0.00 0.01 0.00 42 1010.7
20260504130621 61 286 3.0 19.0 0.00 0.01 0.00 50 1011.1
20260504130136 61 187 8.0 19.0 0.00 0.01 0.00 49 1011.1
20260504120137 54 303 4.0 13.0 0.00 0.01 0.00 57 1011.4
20260504110633 47 252 5.0 8.0 0.00 0.01 0.00 66 1011.3
20260504110125 46 234 5.0 9.0 0.00 0.01 0.00 66 1011.3
20260504100138 41 227 5.0 11.0 0.00 0.01 0.00 77 1011.2
20260504090139 41 240 2.0 4.0 0.00 0.01 0.00 81 1011.0
20260504081653 42 248 1.0 3.0 0.00 0.01 0.00 76 1010.7
20260504081141 43 248 1.0 3.0 0.00 0.01 0.00 77 1010.8
20260504080631 43 248 2.0 4.0 0.00 0.01 0.00 76 1010.9
20260504080120 43 248 2.0 4.0 0.00 0.01 0.00 75 1010.9
20260504070142 43 248 0.0 3.0 0.00 0.01 0.00 71 1010.7
20260504060147 43 268 1.0 5.0 0.00 0.01 0.00 66 1010.8
20260504050635 40 255 2.0 8.0 0.00 0.01 0.00 71 1010.8
20260504050140 40 238 2.0 8.0 0.00 0.01 0.00 70 1010.8
20260504045627 40 267 2.0 4.0 0.00 0.01 0.00 69 1010.9
20260504045212 40 246 1.0 4.0 0.00 0.01 0.00 69 1010.8
20260504044622 39 228 1.0 4.0 0.00 0.01 0.00 70 1010.8
20260504044132 40 274 1.0 4.0 0.00 0.01 0.00 70 1010.9
20260504043657 40 271 2.0 4.0 0.00 0.01 0.00 73 1010.8
20260504043122 40 254 1.0 7.0 0.00 0.01 0.00 71 1010.8
20260504042637 40 240 3.0 7.0 0.00 0.01 0.00 70 1010.8
20260504042147 40 257 2.0 5.0 0.00 0.01 0.00 70 1010.8
20260504041632 40 240 2.0 6.0 0.00 0.01 0.00 71 1010.8
20260504041120 39 246 3.0 7.0 0.00 0.01 0.00 69 1010.8
20260504040642 39 279 2.0 5.0 0.00 0.01 0.00 71 1010.6
20260504040131 39 266 3.0 6.0 0.00 0.01 0.01 72 1010.5
20260504035653 39 247 2.0 9.0 0.00 0.01 0.01 73 1010.6
20260504035123 39 254 4.0 9.0 0.00 0.01 0.01 72 1010.6